When you browse on this site, cookies collect data to enhance your experience and personalize the content and advertising you see.
Visit our Privacy Policy to learn more. By continuing to use the site, you agree to this use of cookies and data.
  • In Germany
  • List of Countries
  • For 7 days
  • Water Temperature
  • Weather Map
  • Weather Widgets
  • user-avatar
    Login

    Hourly Weather Belize

    Today, 24 September, Tuesday

    Time Temperature Precipitation Wind Pressure Humidity
    00:00 +27°C° 0.3 mm 4 mps 757 mmHg 90%
    01:00 +26°C° 0.5 mm 4 mps 757 mmHg 90%
    02:00 +26°C° 0.5 mm 4 mps 757 mmHg 90%
    03:00 +26°C° 0.5 mm 3 mps 757 mmHg 91%
    04:00 +26°C° 0.1 mm 3 mps 757 mmHg 92%
    05:00 +26°C° 0.1 mm 2 mps 757 mmHg 92%
    06:00 +25°C° 0.1 mm 2 mps 757 mmHg 93%
    07:00 +28°C° 0 mm 2 mps 757 mmHg 81%
    08:00 +31°C° 0 mm 1 mps 758 mmHg 70%
    09:00 +34°C° 0 mm 1 mps 758 mmHg 58%
    10:00 +37°C° 0 mm 2 mps 758 mmHg 52%
    11:00 +39°C° 0 mm 2 mps 757 mmHg 46%
    12:00 +40°C° 0 mm 3 mps 757 mmHg 40%
    13:00 +39°C° 0 mm 3 mps 756 mmHg 44%
    14:00 +38°C° 0 mm 3 mps 755 mmHg 48%
    15:00 +37°C° 0 mm 3 mps 755 mmHg 52%
    16:00 +35°C° 0 mm 3 mps 755 mmHg 62%
    17:00 +33°C° 0 mm 3 mps 755 mmHg 71%
    18:00 +30°C° 0 mm 3 mps 755 mmHg 80%
    19:00 +29°C° 0 mm 3 mps 756 mmHg 82%
    20:00 +28°C° 0 mm 4 mps 756 mmHg 85%
    21:00 +28°C° 0 mm 4 mps 757 mmHg 88%
    22:00 +27°C° 0.8 mm 4 mps 757 mmHg 90%
    23:00 +27°C° 0.8 mm 4 mps 757 mmHg 93%

    Tomorrow, 25 September, Wednesday

    Time Temperature Precipitation Wind Pressure Humidity
    00:00 +27°C° 0.8 mm 4 mps 756 mmHg 95%
    01:00 +26°C° 0.3 mm 3 mps 756 mmHg 96%
    02:00 +26°C° 0.3 mm 3 mps 756 mmHg 96%
    03:00 +26°C° 0.3 mm 3 mps 756 mmHg 96%
    04:00 +26°C° 0 mm 2 mps 756 mmHg 96%
    05:00 +26°C° 0 mm 2 mps 756 mmHg 97%
    06:00 +26°C° 0 mm 2 mps 756 mmHg 97%
    07:00 +28°C° 0 mm 2 mps 757 mmHg 86%
    08:00 +30°C° 0 mm 2 mps 757 mmHg 75%
    09:00 +34°C° 0 mm 2 mps 758 mmHg 65%
    10:00 +36°C° 0 mm 2 mps 757 mmHg 57%
    11:00 +38°C° 0 mm 2 mps 757 mmHg 50%
    12:00 +41°C° 0 mm 2 mps 756 mmHg 42%
    13:00 +39°C° 0 mm 2 mps 756 mmHg 48%
    14:00 +37°C° 0 mm 3 mps 755 mmHg 54%
    15:00 +36°C° 0 mm 4 mps 754 mmHg 60%
    16:00 +34°C° 0.2 mm 4 mps 754 mmHg 68%
    17:00 +32°C° 0.2 mm 4 mps 755 mmHg 77%
    18:00 +29°C° 0.2 mm 4 mps 755 mmHg 86%
    19:00 +28°C° 0.1 mm 4 mps 755 mmHg 89%
    20:00 +28°C° 0.1 mm 4 mps 756 mmHg 93%
    21:00 +27°C° 0.1 mm 5 mps 757 mmHg 96%
    22:00 +27°C° 0.8 mm 5 mps 756 mmHg 97%
    23:00 +27°C° 0.8 mm 5 mps 756 mmHg 97%

    Day after tomorrow, 26 September, Thursday

    Time Temperature Precipitation Wind Pressure Humidity
    00:00 +26°C° 0.8 mm 5 mps 756 mmHg 98%
    01:00 +26°C° 0.6 mm 4 mps 756 mmHg 98%
    02:00 +26°C° 0.6 mm 4 mps 755 mmHg 98%
    03:00 +26°C° 0.6 mm 3 mps 755 mmHg 98%
    04:00 +26°C° 0.8 mm 3 mps 755 mmHg 98%
    05:00 +26°C° 0.8 mm 2 mps 756 mmHg 98%
    06:00 +26°C° 0.8 mm 2 mps 756 mmHg 98%
    07:00 +28°C° 0.1 mm 1 mps 756 mmHg 90%
    08:00 +30°C° 0.1 mm 1 mps 757 mmHg 83%
    09:00 +32°C° 0.1 mm 1 mps 757 mmHg 75%
    10:00 +33°C° 0.4 mm 1 mps 757 mmHg 68%
    11:00 +34°C° 0.4 mm 1 mps 756 mmHg 60%
    12:00 +36°C° 0.4 mm 1 mps 756 mmHg 52%
    13:00 +36°C° 0 mm 2 mps 755 mmHg 53%
    14:00 +36°C° 0 mm 2 mps 754 mmHg 54%
    15:00 +36°C° 0 mm 3 mps 754 mmHg 55%
    16:00 +34°C° 0.1 mm 3 mps 754 mmHg 65%
    17:00 +32°C° 0.1 mm 4 mps 754 mmHg 74%
    18:00 +29°C° 0.1 mm 4 mps 754 mmHg 83%
    19:00 +28°C° 1.8 mm 4 mps 755 mmHg 88%
    20:00 +28°C° 1.8 mm 4 mps 755 mmHg 92%
    21:00 +27°C° 1.8 mm 4 mps 756 mmHg 97%
    22:00 +27°C° 2.5 mm 4 mps 756 mmHg 97%
    23:00 +27°C° 2.5 mm 4 mps 756 mmHg 97%

    27 September, Friday

    Time Temperature Precipitation Wind Pressure Humidity
    00:00 +27°C° 2.5 mm 4 mps 756 mmHg 98%
    01:00 +26°C° 2.2 mm 4 mps 755 mmHg 98%
    02:00 +26°C° 2.2 mm 4 mps 755 mmHg 98%
    03:00 +26°C° 2.2 mm 4 mps 755 mmHg 98%
    04:00 +26°C° 0.2 mm 3 mps 755 mmHg 98%
    05:00 +26°C° 0.2 mm 3 mps 755 mmHg 98%
    06:00 +26°C° 0.2 mm 3 mps 755 mmHg 98%
    07:00 +28°C° 0.3 mm 3 mps 755 mmHg 90%
    08:00 +30°C° 0.3 mm 3 mps 756 mmHg 82%
    09:00 +33°C° 0.3 mm 3 mps 756 mmHg 73%
    10:00 +33°C° 1.1 mm 3 mps 756 mmHg 75%
    11:00 +33°C° 1.1 mm 4 mps 756 mmHg 76%
    12:00 +33°C° 1.1 mm 4 mps 755 mmHg 78%
    13:00 +34°C° 0 mm 4 mps 755 mmHg 72%
    14:00 +34°C° 0 mm 4 mps 754 mmHg 65%
    15:00 +35°C° 0 mm 5 mps 754 mmHg 59%
    16:00 +33°C° 0.1 mm 5 mps 754 mmHg 69%
    17:00 +32°C° 0.1 mm 5 mps 754 mmHg 79%
    18:00 +29°C° 0.1 mm 5 mps 754 mmHg 88%
    19:00 +29°C° 0 mm 5 mps 755 mmHg 91%
    20:00 +28°C° 0 mm 6 mps 755 mmHg 94%
    21:00 +28°C° 0 mm 6 mps 756 mmHg 97%
    22:00 +28°C° 0.4 mm 6 mps 756 mmHg 97%
    23:00 +28°C° 0.4 mm 6 mps 755 mmHg 97%

    28 September, Saturday

    Time Temperature Precipitation Wind Pressure Humidity
    00:00 +28°C° 0.4 mm 5 mps 755 mmHg 98%
    01:00 +28°C° 1.4 mm 6 mps 755 mmHg 98%
    02:00 +28°C° 1.4 mm 7 mps 755 mmHg 97%
    03:00 +28°C° 1.4 mm 7 mps 754 mmHg 97%
    04:00 +28°C° 0.4 mm 7 mps 755 mmHg 97%
    05:00 +28°C° 0.4 mm 6 mps 755 mmHg 98%
    06:00 +28°C° 0.4 mm 6 mps 755 mmHg 98%
    07:00 +29°C° 0.5 mm 5 mps 756 mmHg 95%
    08:00 +30°C° 0.5 mm 5 mps 756 mmHg 91%
    09:00 +32°C° 0.5 mm 4 mps 757 mmHg 87%
    10:00 +33°C° 1.2 mm 4 mps 757 mmHg 85%
    11:00 +33°C° 1.2 mm 4 mps 756 mmHg 82%
    12:00 +34°C° 1.2 mm 4 mps 756 mmHg 79%
    13:00 +34°C° 0 mm 4 mps 756 mmHg 72%
    14:00 +35°C° 0 mm 4 mps 755 mmHg 66%
    15:00 +36°C° 0 mm 4 mps 754 mmHg 59%
    16:00 +34°C° 0.2 mm 5 mps 755 mmHg 68%
    17:00 +32°C° 0.2 mm 5 mps 755 mmHg 77%
    18:00 +29°C° 0.2 mm 6 mps 755 mmHg 87%
    19:00 +29°C° 1.2 mm 6 mps 756 mmHg 88%
    20:00 +29°C° 1.2 mm 6 mps 756 mmHg 89%
    21:00 +28°C° 1.2 mm 6 mps 757 mmHg 90%
    22:00 +28°C° 0.3 mm 6 mps 757 mmHg 92%
    23:00 +27°C° 0.3 mm 5 mps 757 mmHg 93%

    29 September, Sunday

    Time Temperature Precipitation Wind Pressure Humidity
    00:00 +27°C° 0.3 mm 4 mps 757 mmHg 94%
    01:00 +27°C° 0.7 mm 4 mps 757 mmHg 95%
    02:00 +27°C° 0.7 mm 5 mps 756 mmHg 96%
    03:00 +27°C° 0.7 mm 5 mps 756 mmHg 96%
    04:00 +27°C° 1.2 mm 4 mps 756 mmHg 96%
    05:00 +27°C° 1.2 mm 4 mps 757 mmHg 96%
    06:00 +27°C° 1.2 mm 4 mps 757 mmHg 96%
    07:00 +28°C° 0.9 mm 5 mps 757 mmHg 94%
    08:00 +29°C° 0.9 mm 5 mps 758 mmHg 92%
    09:00 +32°C° 0.9 mm 6 mps 758 mmHg 91%
    10:00 +33°C° 0.9 mm 6 mps 758 mmHg 83%
    11:00 +34°C° 0.9 mm 6 mps 758 mmHg 76%
    12:00 +35°C° 0.9 mm 5 mps 757 mmHg 69%
    13:00 +35°C° 0.3 mm 5 mps 757 mmHg 69%
    14:00 +35°C° 0.3 mm 5 mps 756 mmHg 70%
    15:00 +34°C° 0.3 mm 5 mps 755 mmHg 70%
    16:00 +33°C° 0 mm 5 mps 756 mmHg 76%
    17:00 +32°C° 0 mm 5 mps 756 mmHg 82%
    18:00 +29°C° 0 mm 5 mps 756 mmHg 87%
    19:00 +29°C° 0 mm 5 mps 757 mmHg 90%
    20:00 +28°C° 0 mm 5 mps 757 mmHg 93%
    21:00 +28°C° 0 mm 5 mps 758 mmHg 95%
    22:00 +28°C° 0.1 mm 5 mps 758 mmHg 96%
    23:00 +28°C° 0.1 mm 4 mps 758 mmHg 96%
    Show more